QTR909 YSSY-OTHH

Flight info

Callsign QTR909
Flight time N/A
Altitude 34000
Route TESAT A576 PKS J141 LEC T21 WENER/N0496F360 T21 PD N509 TATOD/N0492F380 N509 ELATI N640 EKASU/N0485F400 N640 KAT P570 EMURU N563 SODEX/N0509F340 N563 UMIBU P899 TOVOX
Aircraft A359/H-SDE2E3GHIJ3J4J5LM1ORWXY/LB1D1

Departure

Time N/A
Airport Sydney Kingsford Smith International Airport (YSSY)

Arrival

Time 2026-05-04 03:36
Airport Hamad International Airport (OTHH)
Time Latitude Longitude Altitude Speed Heading
2026-05-04 02:17 21.31096 59.49391 39779 ft 471 kts 327°
2026-05-04 02:17 21.36709 59.45758 39778 ft 471 kts 327°
2026-05-04 02:18 21.42325 59.42120 39774 ft 471 kts 327°
2026-05-04 02:18 21.47900 59.38508 39776 ft 471 kts 327°
2026-05-04 02:19 21.53511 59.34870 39779 ft 471 kts 327°
2026-05-04 02:19 21.59127 59.31225 39778 ft 471 kts 327°
2026-05-04 02:20 21.63795 59.28193 39780 ft 471 kts 327°
2026-05-04 02:20 21.69400 59.24552 39784 ft 471 kts 327°
2026-05-04 02:21 21.75011 59.20904 39794 ft 471 kts 327°
2026-05-04 02:21 21.80621 59.17253 39796 ft 471 kts 327°
2026-05-04 02:22 21.86186 59.13628 39801 ft 470 kts 327°
2026-05-04 02:22 21.91795 59.09971 39802 ft 471 kts 327°
2026-05-04 02:23 21.97400 59.06313 39814 ft 470 kts 327°
2026-05-04 02:23 22.03009 59.02649 39816 ft 470 kts 327°
2026-05-04 02:24 22.08609 58.98987 39820 ft 470 kts 327°
2026-05-04 02:24 22.14198 58.95330 39827 ft 470 kts 327°
2026-05-04 02:25 22.19688 58.91590 39830 ft 469 kts 321°
2026-05-04 02:25 22.24297 58.86675 39833 ft 464 kts 305°
2026-05-04 02:26 22.27615 58.80712 39832 ft 464 kts 298°
2026-05-04 02:26 22.30627 58.74548 39835 ft 464 kts 297°
2026-05-04 02:27 22.33605 58.68370 39835 ft 464 kts 297°
2026-05-04 02:27 22.36606 58.62200 39836 ft 464 kts 297°
2026-05-04 02:28 22.39621 58.56034 39840 ft 464 kts 297°
2026-05-04 02:28 22.42640 58.49863 39839 ft 464 kts 297°
2026-05-04 02:29 22.45655 58.43690 39837 ft 464 kts 297°
2026-05-04 02:29 22.48650 58.37550 39837 ft 464 kts 297°
2026-05-04 02:30 22.51655 58.31378 39845 ft 464 kts 297°
2026-05-04 02:30 22.54660 58.25202 39843 ft 464 kts 297°
2026-05-04 02:31 22.57662 58.19022 39842 ft 464 kts 297°
2026-05-04 02:31 22.60657 58.12850 39845 ft 463 kts 297°
2026-05-04 02:32 22.63654 58.06666 39848 ft 463 kts 297°
2026-05-04 02:32 22.66628 58.00522 39850 ft 463 kts 297°
2026-05-04 02:33 22.69613 57.94348 39850 ft 463 kts 297°
2026-05-04 02:33 22.72602 57.88158 39858 ft 463 kts 297°
2026-05-04 02:34 22.75585 57.81974 39857 ft 462 kts 296°
2026-05-04 02:34 22.78562 57.75793 39862 ft 462 kts 296°
2026-05-04 02:35 22.81513 57.69660 39866 ft 462 kts 296°
2026-05-04 02:35 22.84486 57.63471 39876 ft 462 kts 296°
2026-05-04 02:36 22.87453 57.57289 39887 ft 461 kts 296°
2026-05-04 02:36 22.90412 57.51114 39898 ft 461 kts 296°
2026-05-04 02:37 22.93370 57.44934 39905 ft 461 kts 296°
2026-05-04 02:37 22.96325 57.38756 39905 ft 461 kts 296°
2026-05-04 02:38 22.99274 57.32580 39910 ft 461 kts 296°
2026-05-04 02:38 23.02225 57.26402 39908 ft 461 kts 296°
2026-05-04 02:39 23.05167 57.20217 39908 ft 461 kts 296°
2026-05-04 02:39 23.08093 57.14056 39906 ft 461 kts 296°
2026-05-04 02:40 23.11032 57.07860 39905 ft 461 kts 296°
2026-05-04 02:40 23.13971 57.01664 39898 ft 461 kts 296°
2026-05-04 02:41 23.16884 56.95515 39898 ft 460 kts 296°
2026-05-04 02:41 23.19813 56.89320 39892 ft 460 kts 296°
2026-05-04 02:42 23.22740 56.83125 39888 ft 460 kts 296°
2026-05-04 02:42 23.25660 56.76934 39885 ft 460 kts 296°
2026-05-04 02:43 23.28577 56.70745 39877 ft 460 kts 296°
2026-05-04 02:43 23.31495 56.64544 39870 ft 460 kts 296°
2026-05-04 02:44 23.34388 56.58389 39868 ft 460 kts 296°
2026-05-04 02:44 23.37296 56.52194 39866 ft 460 kts 296°
2026-05-04 02:45 23.40203 56.45993 39859 ft 460 kts 296°
2026-05-04 02:45 23.43108 56.39789 39859 ft 460 kts 296°
2026-05-04 02:46 23.46008 56.33588 39857 ft 460 kts 296°
2026-05-04 02:46 23.48913 56.27364 39846 ft 460 kts 296°
2026-05-04 02:47 23.51810 56.21154 39848 ft 460 kts 296°
2026-05-04 02:47 23.54708 56.14934 39845 ft 459 kts 295°
2026-05-04 02:48 23.57580 56.08768 39842 ft 459 kts 295°
2026-05-04 02:48 23.60465 56.02560 39836 ft 458 kts 295°
2026-05-04 02:49 23.63346 55.96351 39834 ft 458 kts 295°
2026-05-04 02:49 23.66217 55.90157 39832 ft 458 kts 295°
2026-05-04 02:50 23.69088 55.83956 39833 ft 458 kts 295°
2026-05-04 02:50 23.71962 55.77752 39832 ft 457 kts 295°
2026-05-04 02:51 23.74826 55.71541 39828 ft 457 kts 295°
2026-05-04 02:51 23.77679 55.65342 39832 ft 457 kts 295°
2026-05-04 02:52 23.80528 55.59149 39832 ft 457 kts 295°
2026-05-04 02:52 23.83381 55.52942 39829 ft 457 kts 295°
2026-05-04 02:53 23.86077 55.46666 39831 ft 456 kts 292°
2026-05-04 02:53 23.88612 55.40364 39826 ft 456 kts 292°
2026-05-04 02:54 23.91181 55.34015 39828 ft 456 kts 292°
2026-05-04 02:54 23.94241 55.27935 39828 ft 457 kts 300°
2026-05-04 02:55 23.99374 55.19131 39825 ft 458 kts 301°
2026-05-04 02:56 24.02820 55.13292 39822 ft 457 kts 301°
2026-05-04 02:56 24.06264 55.07428 39820 ft 457 kts 301°
2026-05-04 02:57 24.09695 55.01564 39823 ft 457 kts 301°
2026-05-04 02:57 24.13103 54.95734 39820 ft 457 kts 301°
2026-05-04 02:58 24.16527 54.89867 39818 ft 457 kts 300°
2026-05-04 02:58 24.19947 54.83993 39812 ft 457 kts 300°
2026-05-04 02:59 24.23367 54.78114 39807 ft 457 kts 300°
2026-05-04 02:59 24.26788 54.72230 39806 ft 457 kts 300°
2026-05-04 03:00 24.30196 54.66360 39800 ft 457 kts 300°
2026-05-04 03:00 24.33588 54.60513 39801 ft 456 kts 300°
2026-05-04 03:01 24.36991 54.54615 39807 ft 456 kts 300°
2026-05-04 03:01 24.39643 54.48346 39803 ft 453 kts 285°
2026-05-04 03:02 24.40815 54.43733 39802 ft 452 kts 283°
2026-05-04 03:02 24.42319 54.37030 39800 ft 452 kts 283°
2026-05-04 03:03 24.43781 54.30308 39804 ft 452 kts 283°
2026-05-04 03:03 24.45259 54.23581 39804 ft 452 kts 283°
2026-05-04 03:04 24.46735 54.16910 39805 ft 452 kts 283°
2026-05-04 03:04 24.48224 54.10189 39804 ft 452 kts 283°
2026-05-04 03:05 24.49455 54.04614 39811 ft 452 kts 283°
2026-05-04 03:05 24.50936 53.97897 39812 ft 452 kts 283°
2026-05-04 03:06 24.52657 53.90089 39810 ft 452 kts 283°
2026-05-04 03:06 24.54304 53.83416 39809 ft 453 kts 284°
2026-05-04 03:07 24.55736 53.77887 39808 ft 453 kts 284°
2026-05-04 03:07 24.57439 53.71234 39815 ft 452 kts 284°
2026-05-04 03:08 24.59116 53.64573 39811 ft 452 kts 284°
2026-05-04 03:08 24.60782 53.57897 39817 ft 452 kts 284°
2026-05-04 03:09 24.62446 53.51219 39816 ft 452 kts 284°
2026-05-04 03:09 24.64103 53.44558 39818 ft 452 kts 284°
2026-05-04 03:10 24.65747 53.37940 39819 ft 451 kts 284°
2026-05-04 03:10 24.67397 53.31285 39580 ft 448 kts 284°
2026-05-04 03:10 24.68217 53.27973 39016 ft 447 kts 284°
2026-05-04 03:11 24.69036 53.24662 38325 ft 449 kts 284°
2026-05-04 03:11 24.69855 53.21344 37523 ft 451 kts 284°
2026-05-04 03:11 24.70678 53.18008 36754 ft 453 kts 284°
2026-05-04 03:11 24.71504 53.14654 36014 ft 454 kts 284°
2026-05-04 03:12 24.72331 53.11299 35293 ft 455 kts 284°
2026-05-04 03:12 24.73158 53.07936 34599 ft 455 kts 283°
2026-05-04 03:12 24.73985 53.04574 33916 ft 455 kts 283°
2026-05-04 03:12 24.74800 53.01250 33160 ft 455 kts 283°
2026-05-04 03:13 24.75621 52.97896 32410 ft 454 kts 284°
2026-05-04 03:13 24.76444 52.94533 31678 ft 454 kts 284°
2026-05-04 03:13 24.77263 52.91181 30969 ft 453 kts 284°
2026-05-04 03:13 24.78080 52.87837 30268 ft 452 kts 284°
2026-05-04 03:14 24.78896 52.84492 29543 ft 451 kts 284°
2026-05-04 03:14 24.79712 52.81150 28743 ft 450 kts 284°
2026-05-04 03:14 24.80524 52.77825 27965 ft 449 kts 284°
2026-05-04 03:14 24.81323 52.74547 27226 ft 448 kts 284°
2026-05-04 03:15 24.82131 52.71228 26493 ft 447 kts 284°
2026-05-04 03:15 24.82933 52.67926 25785 ft 446 kts 284°
2026-05-04 03:15 24.83734 52.64628 25086 ft 445 kts 284°
2026-05-04 03:15 24.84532 52.61335 24420 ft 445 kts 284°
2026-05-04 03:16 24.85330 52.58045 23752 ft 444 kts 284°
2026-05-04 03:16 24.86126 52.54753 23032 ft 443 kts 284°
2026-05-04 03:16 24.86915 52.51483 22259 ft 441 kts 284°
2026-05-04 03:16 24.87693 52.48257 21508 ft 439 kts 285°
2026-05-04 03:17 24.88474 52.45015 20774 ft 437 kts 285°
2026-05-04 03:17 24.89223 52.41760 20045 ft 434 kts 282°
2026-05-04 03:17 24.89551 52.38462 19346 ft 432 kts 273°
2026-05-04 03:17 24.89618 52.35161 18666 ft 429 kts 271°
2026-05-04 03:18 24.89655 52.31893 18151 ft 423 kts 272°
2026-05-04 03:18 24.89694 52.28707 17872 ft 409 kts 272°
2026-05-04 03:18 24.89659 52.25674 17844 ft 390 kts 268°
2026-05-04 03:18 24.89472 52.22757 17740 ft 375 kts 266°
2026-05-04 03:19 24.89261 52.19926 17396 ft 367 kts 266°
2026-05-04 03:19 24.89053 52.17147 17030 ft 361 kts 266°
2026-05-04 03:19 24.88849 52.14406 16662 ft 356 kts 267°
2026-05-04 03:19 24.88648 52.11693 16297 ft 355 kts 267°
2026-05-04 03:20 24.88451 52.09016 15939 ft 354 kts 267°
2026-05-04 03:20 24.88252 52.06311 15585 ft 353 kts 267°
2026-05-04 03:20 24.88055 52.03612 15222 ft 352 kts 267°
2026-05-04 03:20 24.87856 52.00935 14873 ft 351 kts 267°
2026-05-04 03:21 24.87656 51.98259 14524 ft 350 kts 267°
2026-05-04 03:21 24.87457 51.95590 14181 ft 349 kts 267°
2026-05-04 03:21 24.87260 51.92932 13832 ft 348 kts 267°
2026-05-04 03:21 24.87064 51.90282 13489 ft 347 kts 267°
2026-05-04 03:22 24.86863 51.87636 13109 ft 345 kts 267°
2026-05-04 03:22 24.86663 51.84998 12733 ft 343 kts 267°
2026-05-04 03:22 24.86468 51.82425 12363 ft 341 kts 267°
2026-05-04 03:22 24.86271 51.79833 12002 ft 339 kts 267°
2026-05-04 03:23 24.86074 51.77242 11642 ft 337 kts 267°
2026-05-04 03:23 24.85880 51.74672 11279 ft 334 kts 268°
2026-05-04 03:23 24.85692 51.72163 10934 ft 332 kts 267°
2026-05-04 03:23 24.85497 51.69631 10586 ft 330 kts 268°
2026-05-04 03:24 24.85304 51.67117 10241 ft 328 kts 268°
2026-05-04 03:24 24.85112 51.64617 10052 ft 326 kts 268°
2026-05-04 03:24 24.84995 51.62124 10025 ft 325 kts 275°
2026-05-04 03:24 24.85543 51.59751 9864 ft 319 kts 298°
2026-05-04 03:25 24.86915 51.57893 9518 ft 310 kts 319°
2026-05-04 03:25 24.88567 51.56399 9130 ft 304 kts 322°
2026-05-04 03:25 24.90202 51.54954 8777 ft 299 kts 321°
2026-05-04 03:25 24.91797 51.53515 8417 ft 294 kts 320°
2026-05-04 03:26 24.93341 51.52102 8069 ft 290 kts 320°
2026-05-04 03:26 24.94899 51.50713 7716 ft 285 kts 324°
2026-05-04 03:26 24.96629 51.49676 7366 ft 282 kts 336°
2026-05-04 03:26 24.98440 51.48869 7023 ft 279 kts 338°
2026-05-04 03:27 25.00243 51.48124 6680 ft 276 kts 341°
2026-05-04 03:27 25.02128 51.47746 6288 ft 277 kts 356°
2026-05-04 03:27 25.04048 51.48052 5795 ft 283 kts 17°
2026-05-04 03:27 25.05669 51.49201 5321 ft 276 kts 43°
2026-05-04 03:28 25.06625 51.50977 4867 ft 272 kts 69°
2026-05-04 03:28 25.06782 51.53024 4380 ft 268 kts 95°
2026-05-04 03:28 25.06386 51.54980 4090 ft 254 kts 103°
2026-05-04 03:28 25.05933 51.56790 4033 ft 239 kts 103°
2026-05-04 03:29 25.05510 51.58557 4046 ft 236 kts 101°
2026-05-04 03:29 25.05371 51.60334 3902 ft 229 kts 85°
2026-05-04 03:29 25.05431 51.62067 3669 ft 224 kts 83°
2026-05-04 03:29 25.05681 51.63725 3436 ft 214 kts 67°
2026-05-04 03:30 25.06196 51.65242 3212 ft 208 kts 63°
2026-05-04 03:30 25.06854 51.66621 3041 ft 198 kts 54°
2026-05-04 03:30 25.07808 51.67589 3026 ft 187 kts 17°
2026-05-04 03:30 25.09066 51.67707 3022 ft 179 kts 350°
2026-05-04 03:31 25.10195 51.67322 3029 ft 162 kts 335°
2026-05-04 03:31 25.11216 51.66844 2938 ft 158 kts 337°
2026-05-04 03:31 25.12225 51.66409 2726 ft 152 kts 338°
2026-05-04 03:31 25.13169 51.65999 2529 ft 139 kts 337°
2026-05-04 03:32 25.14039 51.65615 2349 ft 132 kts 337°
2026-05-04 03:32 25.14893 51.65238 2190 ft 132 kts 337°
2026-05-04 03:32 25.15751 51.64861 2006 ft 133 kts 338°
2026-05-04 03:32 25.16601 51.64488 1839 ft 133 kts 338°
2026-05-04 03:33 25.17463 51.64108 1664 ft 133 kts 338°
2026-05-04 03:33 25.18329 51.63725 1504 ft 134 kts 338°
2026-05-04 03:33 25.19197 51.63342 1336 ft 134 kts 339°
2026-05-04 03:33 25.20063 51.62962 1155 ft 133 kts 338°
2026-05-04 03:34 25.20920 51.62584 988 ft 134 kts 338°
2026-05-04 03:34 25.21797 51.62202 851 ft 137 kts 337°
2026-05-04 03:34 25.22686 51.61811 752 ft 138 kts 337°
2026-05-04 03:34 25.23581 51.61402 618 ft 139 kts 335°
2026-05-04 03:35 25.24474 51.60986 405 ft 140 kts 336°
2026-05-04 03:35 25.25374 51.60622 161 ft 140 kts 337°
2026-05-04 03:35 25.26262 51.60220 37 ft 133 kts 338°
2026-05-04 03:35 25.27008 51.59895 27 ft 82 kts 339°
2026-05-04 03:36 25.27324 51.59822 28 ft 35 kts
2026-05-04 03:36 25.27411 51.59914 28 ft 18 kts 128°
2026-05-04 03:36 25.27284 51.59979 28 ft 24 kts 156°
2026-05-04 03:36 25.27126 51.60047 28 ft 27 kts 159°
2026-05-04 03:37 25.26983 51.60110 28 ft 28 kts 156°
2026-05-04 03:37 25.26766 51.60206 27 ft 38 kts 158°
2026-05-04 03:37 25.26611 51.60274 28 ft 27 kts 159°
2026-05-04 03:37 25.26517 51.60394 28 ft 22 kts 69°
2026-05-04 03:38 25.26577 51.60560 28 ft 18 kts 68°
2026-05-04 03:38 25.26569 51.60698 28 ft 14 kts 115°
2026-05-04 03:38 25.26529 51.60797 28 ft 18 kts 113°
2026-05-04 03:38 25.26405 51.60909 28 ft 29 kts 157°
2026-05-04 03:39 25.26265 51.60890 28 ft 22 kts 248°
2026-05-04 03:39 25.26202 51.60719 28 ft 19 kts 240°
2026-05-04 03:39 25.26137 51.60701 28 ft 8 kts 142°
2026-05-04 03:39 25.26138 51.60809 28 ft 22 kts 66°
2026-05-04 03:40 25.26211 51.61007 28 ft 32 kts 68°
2026-05-04 03:40 25.26312 51.61060 28 ft 14 kts 332°
2026-05-04 03:40 25.26393 51.61102 28 ft 17 kts 71°
2026-05-04 03:40 25.26402 51.61129 28 ft 0 kts 70°